Tracking 25709 objects as of 24-May-2022
HD Live streaming from Space Station
objects crossing your sky now

SPACEBEE-97

Track SPACEBEE-97 now!
10-day predictions


NORAD ID: 48946
Int'l Code: 2021-059BV
Perigee: 495.1 km
Apogee: 517.0 km
Inclination: 97.5 °
Period: 94.6 minutes
Semi major axis: 6877 km
RCS: Unknown
Launch date: June 30, 2021
Source: United States (US)
Launch site: AIR FORCE EASTERN TEST RANGE (AFETR)
aabbcc
Your satellite tracking list
Your tracking list is empty




NASA's NSSDC Master Catalog

Two Line Element Set (TLE):
1 48946U 21059BV  22143.34033333  .00038614  00000-0  16667-2 0  9992
2 48946  97.5414 274.5567 0015863 186.7014 173.4013 15.22297709 50243
Source of the keplerian elements: AFSPC